Flag for U.S.A. Weather past 2 weeks in Duluth, Minnesota, U.S.A.

Now
54 °F

Sunny.


Feels Like: 49 °F
Forecast: 44 / 59 °F
Wind: 14 mph from West

Location: Sky Harbor Airport

Current Time: Oct 25, 2014 at 11:32:15 AM

Latest Report: Oct 25, 2014 at 10:53 AM


Visibility: 10 mi

Pressure: 29.93 "Hg

Humidity: 51%

Dew point: 36 °F

Location of DuluthLocation

Historic Weather in Duluth — Graph

°F

Duluth temperature yesterday

Maximum temperature yesterday: 70 °F (at 2:34 PM)
Minimum temperature yesterday: 45 °F (at 4:14 AM)
Average temperature yesterday: 56 °F

Past Weeks' High & Low Weather Summary

 TemperatureHumidityPressure
High70 °F (Oct 24, 2:34 PM)100% (Oct 13, 5:34 PM)30.27 "Hg (Oct 13, 5:34 PM)
Low32 °F (Oct 11, 4:53 AM)34% (Oct 12, 3:34 PM)29.00 "Hg (Oct 16, 6:13 PM)
Average49 °F77%29.97 "Hg
* Reported Oct 10 10:13 AM — Oct 25 10:34 AM, Duluth, Weather by CustomWeather, © 2014

Note: Actual official high and low records may vary slightly from our data, if they occured in-between our weather recording intervals... More about our weather records

Advertising

Duluth weather history for previous 24 hours

 ConditionsComfort  
Time TempWeatherWind HumidityBarometerVisibility
10:34 AM
Oct 25
54 °FSunny.17 mph47%29.93 "Hg10 mi
10:13 AM54 °FSunny.15 mph51%29.93 "Hg10 mi
9:54 AM52 °FSunny.15 mph54%29.94 "Hg10 mi
9:33 AM52 °FSunny.17 mph54%29.93 "Hg10 mi
9:13 AM52 °FSunny.14 mph54%29.93 "Hg10 mi
8:54 AM52 °FSunny.13 mph54%29.93 "Hg10 mi
8:33 AM52 °FClear.13 mph54%29.91 "Hg10 mi
8:13 AM50 °FClear.13 mph58%29.91 "Hg10 mi
7:54 AM52 °FClear.12 mph54%29.91 "Hg10 mi
7:33 AM52 °FClear.13 mph58%29.90 "Hg10 mi
7:13 AM52 °FClear.15 mph58%29.89 "Hg10 mi
6:54 AM52 °FClear.12 mph58%29.88 "Hg10 mi
6:33 AM52 °FClear.12 mph58%29.88 "Hg10 mi
6:13 AM54 °FClear.13 mph54%29.87 "Hg10 mi
5:54 AM52 °FClear.12 mph58%29.86 "Hg10 mi
5:33 AM52 °FClear.8 mph58%29.85 "Hg10 mi
5:13 AM50 °FClear.10 mph67%29.85 "Hg10 mi
4:53 AM52 °FClear.9 mph62%29.84 "Hg10 mi
4:33 AM50 °FClear.10 mph67%29.84 "Hg10 mi
4:14 AM52 °FClear.9 mph62%29.84 "Hg10 mi
3:54 AM52 °FClear.9 mph62%29.83 "Hg10 mi
3:33 AM52 °FClear.12 mph62%29.83 "Hg10 mi
3:14 AM54 °FClear.13 mph58%29.82 "Hg10 mi
2:54 AM54 °FClear.12 mph58%29.82 "Hg10 mi
2:33 AM54 °FClear.10 mph63%29.82 "Hg10 mi
2:14 AM54 °FClear.9 mph63%29.82 "Hg10 mi
1:53 AM57 °FClear.8 mph51%29.81 "Hg10 mi
1:33 AM55 °FClear.12 mph59%29.81 "Hg10 mi
1:14 AM55 °FClear.10 mph63%29.80 "Hg10 mi
12:53 AM55 °FClear.12 mph67%29.79 "Hg10 mi
12:33 AM57 °FClear.12 mph63%29.78 "Hg10 mi
12:13 AM57 °FClear.10 mph67%29.78 "Hg10 mi
11:53 PM
Oct 24
57 °FClear.10 mph72%29.78 "Hg10 mi
11:34 PM57 °FClear.10 mph72%29.78 "Hg10 mi
11:13 PM57 °FClear.12 mph72%29.77 "Hg10 mi
10:53 PM59 °FClear.12 mph72%29.76 "Hg10 mi
10:34 PM59 °FClear.10 mph77%29.76 "Hg10 mi
9:53 PM59 °FClear.13 mph77%29.74 "Hg10 mi
9:34 PM59 °FClear.14 mph77%29.75 "Hg10 mi
9:13 PM59 °FClear.14 mph82%29.75 "Hg10 mi
8:54 PM59 °FClear.13 mph82%29.76 "Hg10 mi
8:34 PM61 °FClear.13 mph77%29.76 "Hg10 mi
8:13 PM61 °FClear.12 mph77%29.75 "Hg10 mi
7:54 PM61 °FClear.13 mph77%29.76 "Hg10 mi
7:33 PM61 °FClear.14 mph77%29.76 "Hg10 mi
6:53 PM63 °FSunny.14 mph73%29.76 "Hg10 mi
6:34 PM64 °FSunny.13 mph68%29.76 "Hg10 mi
6:13 PM64 °FSunny.12 mph68%29.76 "Hg10 mi
5:53 PM64 °FSunny.14 mph68%29.75 "Hg10 mi
5:34 PM66 °FSunny.13 mph64%29.75 "Hg10 mi
5:13 PM66 °FSunny.13 mph64%29.74 "Hg10 mi
4:53 PM68 °FSunny.13 mph60%29.74 "Hg10 mi
4:34 PM68 °FSunny.13 mph60%29.74 "Hg10 mi
4:13 PM70 °FSunny.15 mph57%29.75 "Hg10 mi
3:53 PM70 °FSunny.14 mph57%29.76 "Hg10 mi
3:34 PM70 °FSunny.14 mph60%29.75 "Hg10 mi
3:13 PM70 °FSunny.13 mph60%29.75 "Hg10 mi
2:53 PM70 °FSunny.14 mph60%29.75 "Hg10 mi
2:34 PM70 °FSunny.13 mph57%29.75 "Hg10 mi
2:13 PM68 °FSunny.12 mph60%29.75 "Hg10 mi
1:53 PM68 °FSunny.16 mph60%29.77 "Hg10 mi
1:34 PM66 °FSunny.12 mph64%29.78 "Hg10 mi
1:13 PM66 °FSunny.10 mph60%29.79 "Hg10 mi
12:53 PM64 °FSunny.10 mph64%29.80 "Hg10 mi
12:34 PM64 °FSunny.14 mph64%29.81 "Hg10 mi
12:13 PM63 °FSunny.10 mph68%29.82 "Hg10 mi
11:53 AM57 °FSunny.No wind82%29.83 "Hg10 mi
11:34 AM57 °FSunny.No wind82%29.84 "Hg10 mi
11:13 AM55 °FSunny.5 mph88%29.85 "Hg10 mi
Weather by CustomWeather, © 2014

See weather overviewHow to use our weather pages